Regional Weather Roundup
Issued by NWS

Home | Current Version | Previous Version | Graphics & Text | Print | Product List | Glossary On
Versions: 1 2 3 4 5 6 7 8 9 10 11 12 13 14 15 16 17 18 19 20 21 22 23 24 25 26 27 28 29 30 31 32 33 34 35 36 37 38 39 40 41 42 43 44 45 46 47 48 49 50
000
ASUS43 KFSD 291002
RWRSD

WEATHER ROUNDUP FOR SOUTH DAKOTA
NATIONAL WEATHER SERVICE SIOUX FALLS SD
500 AM CDT FRI JUL 29 2016

NOTE: "FAIR" INDICATES FEW OR NO CLOUDS BELOW 12,000 FEET WITH NO
SIGNIFICANT WEATHER AND/OR OBSTRUCTIONS TO VISIBILITY.


SDZ001>005-009-010-012>017-291100-
NORTHWEST AND NORTH CENTRAL SOUTH DAKOTA

CITY           SKY/WX    TMP DP  RH WIND       PRES   REMARKS
BUFFALO          N/A     60  59  96 S8        30.07F
FAITH            N/A     57  56  96 N5        30.11F
MOBRIDGE       CLOUDY    68  59  73 CALM      30.07S
$$

SDZ012>016-024>037-041>051-057-063-072>074-291100-
SOUTHWEST AND SOUTH CENTRAL SOUTH DAKOTA

CITY           SKY/WX    TMP DP  RH WIND       PRES   REMARKS
RAPID CTY ARPT FOG       56  56 100 CALM      30.14S VSB 1/4
PIERRE         MOCLDY    63  60  90 SE3       30.07F
CUSTER         PTCLDY    50  48  93 NW3       30.22F
ELLSWORTH AFB  CLOUDY    57  57 100 SW2       30.13  FOG
PHILIP         FOG       58  58 100 CALM      30.11S VSB 1/4
PINE RIDGE     PTCLDY    54  54 100 CALM      30.14F
WINNER         PTSUNNY   64  61  90 CALM      30.10S
$$

SDZ004>011-016>023-039-040-291100-
NORTHEAST SOUTH DAKOTA

CITY           SKY/WX    TMP DP  RH WIND       PRES   REMARKS
ABERDEEN       CLOUDY    64  60  87 CALM      30.09S
WATERTOWN      CLEAR     61  57  87 N3        30.08F
BROOKINGS      CLEAR     56  53  90 CALM      30.08S
SISSETON         N/A     58  57  97 CALM      30.07S
$$

SDZ017-020-022-023-036>040-048>070-291100-
SOUTHEAST SOUTH DAKOTA

CITY           SKY/WX    TMP DP  RH WIND       PRES   REMARKS
SIOUX FALLS    PTCLDY    56  54  93 CALM      30.06F
HURON          CLEAR     57  55  93 CALM      30.08R
CHAMBERLAIN    CLOUDY    67  67 100 CALM      30.09S
MITCHELL       PTCLDY    59  57  93 W3        30.09R
YANKTON        PTCLDY    61  54  77 N7        30.04F
$$

ABBREVIATIONS USED IN REMARKS
   TC - TEMPERATURE IN CELSIUS
  WCI - WIND CHILL INDEX
   HX - HEAT INDEX
  VSB - VISIBILITY





USA.gov is the U.S. government's official web portal to all federal, state and local government web resources and services.